Location: Nairn
(57.5833°N, 3.8667°W)
Time: 23:56:25
(UTC+00:00)

Vanguard 1 Rocket - All Passes

Search period start: 05 December 2020 00:00
Search period end: 15 December 2020 00:00
Orbit: 655 x 4221 km, 34.3° (Epoch: 05 December)

Date Brightness Start Highest point End Pass type
(mag) Time Alt. Az. Time Alt. Az. Time Alt. Az.
05 Dec - 00:34:00 10° SW 00:54:59 35° SSE 01:13:02 10° ESE visible
05 Dec - 03:01:27 10° WSW 03:22:37 36° SSW 03:38:08 10° SE visible
05 Dec - 05:33:08 10° W 05:48:16 23° SW 05:59:16 10° S visible
05 Dec - 21:06:19 10° SSE 21:16:20 14° SE 21:26:39 10° ESE visible
05 Dec - 23:22:40 10° SSW 23:42:01 30° SSE 00:00:24 10° ESE visible
06 Dec - 01:47:55 10° SW 02:09:45 37° S 02:27:12 10° ESE visible
06 Dec - 04:17:41 10° WSW 04:36:39 30° SSW 04:50:19 10° SSE visible
06 Dec - 06:54:01 10° WSW 07:00:34 12° SW 07:06:11 10° SW visible
06 Dec - 22:12:42 10° S 22:29:25 25° SE 22:46:38 10° E visible
07 Dec - 00:35:17 10° SW 00:56:36 37° S 01:15:29 10° ESE visible
07 Dec - 03:03:10 10° WSW 03:24:19 35° SSW 03:40:19 10° SE visible
07 Dec - 05:35:30 10° W 05:49:44 20° SW 06:00:35 10° S visible
07 Dec - 21:04:46 10° SSE 21:17:25 18° SE 21:31:00 10° E visible
07 Dec - 23:23:42 10° SSW 23:43:30 33° SSE 00:02:55 10° ESE visible
08 Dec - 01:49:32 10° WSW 02:11:25 38° S 02:29:27 10° SE visible
08 Dec - 04:19:40 10° W 04:38:11 28° SSW 04:52:05 10° SSE visible
08 Dec - 20:04:08 10° SE 20:06:08 10° ESE 20:08:09 10° ESE visible
08 Dec - 22:13:18 10° SSW 22:30:44 28° SE 22:49:21 10° E visible
09 Dec - 00:36:49 10° SW 00:58:11 38° S 01:17:47 10° ESE visible
09 Dec - 03:05:02 10° WSW 03:25:55 34° SSW 03:42:18 10° SSE visible
09 Dec - 05:38:14 10° W 05:51:04 18° SW 06:01:22 10° SSW visible
09 Dec - 21:04:29 10° S 21:18:34 21° SE 21:34:21 10° E visible
09 Dec - 23:25:03 10° SW 23:44:58 36° SSE 00:05:16 10° ESE visible
10 Dec - 01:51:20 10° WSW 02:13:02 38° S 02:31:33 10° SE visible
10 Dec - 04:21:52 10° W 04:39:37 26° SW 04:53:32 10° S visible
10 Dec - 19:58:42 10° SSE 20:07:07 13° SE 20:16:22 10° ESE visible
10 Dec - 22:14:22 10° SSW 22:32:05 31° SSE 22:51:49 10° E visible
11 Dec - 00:38:33 10° SW 00:59:47 39° S 01:19:56 10° ESE visible
11 Dec - 03:07:03 10° WSW 03:27:25 32° SSW 03:44:03 10° SSE visible
11 Dec - 05:41:35 10° W 05:52:17 15° SW 06:01:22 10° SSW visible
11 Dec - 21:04:57 10° S 21:19:47 24° SE 21:37:10 10° E visible
11 Dec - 23:26:40 10° SW 23:46:30 37° SSE 00:07:27 10° ESE visible
12 Dec - 01:53:18 10° WSW 02:14:35 37° SSW 02:33:28 10° SE visible
12 Dec - 04:24:19 10° W 04:40:56 23° SW 04:54:35 10° S visible
12 Dec - 19:57:35 10° SSE 20:08:12 17° SE 20:20:33 10° E visible
12 Dec - 22:15:46 10° SSW 22:33:30 33° SSE 22:54:03 10° ESE visible
13 Dec - 00:40:27 10° WSW 01:01:21 39° S 01:21:55 10° SE visible
13 Dec - 03:09:14 10° W 03:28:50 30° SSW 03:45:32 10° SSE visible
13 Dec - 05:46:16 10° WSW 05:53:22 12° WSW 05:59:49 10° SW visible
13 Dec - 21:05:58 10° SSW 21:21:05 27° SE 21:39:38 10° E visible
13 Dec - 23:28:30 10° SW 23:48:03 38° S 00:09:29 10° ESE visible
14 Dec - 01:55:23 10° WSW 02:16:06 35° SSW 02:35:10 10° SE visible
14 Dec - 04:27:08 10° W 04:42:08 20° SW 04:55:05 10° S visible
14 Dec - 19:57:42 10° S 20:09:22 19° SE 20:23:44 10° E visible
14 Dec - 22:17:26 10° SW 22:35:00 35° SSE 22:56:08 10° ESE visible
